Weather History for Springfield, MO

Change the Weather History Date:

Friday, August 1, 2014

  Actual Average Record
Temperature  
Mean Temperature 74 °F 79 °F  
Max Temperature 85 °F 90 °F 105 °F (2011)
Min Temperature 62 °F 68 °F 54 °F (1992)
Degree Days  
Heating Degree Days 0 0  
Month to date heating degree days 0 0  
Since 1 June heating degree days 0 9  
Since 1 July heating degree days 0 0  
Cooling Degree Days 9 14  
Month to date cooling degree days 9 14  
Year to date cooling degree days 788 802  
Since 1 June cooling degree days 595 687  
Growing Degree Days 23 (Base 50)    
Moisture  
Dew Point 62 °F    
Average Humidity 72    
Maximum Humidity 100    
Minimum Humidity 43    
Precipitation  
Precipitation T in 0.10 in 2.11 in (1922)
Month to date precipitation T 0.10  
Year to date precipitation 20.01 26.66  
Snow  
Snow 0.00 in - - ()
Month to date snowfall 0.0  
Since 1 June snowfall 0.0  
Since 1 July snowfall 0.0  
Snow Depth 0.00 in    
Sea Level Pressure  
Sea Level Pressure 30.07 in    
Wind  
Wind Speed 4 mph (South)    
Max Wind Speed 14 mph    
Max Gust Speed 18 mph    
Visibility 6 miles    
Events Fog    
T = Trace of Precipitation, MM = Missing Value Source: NWS Daily Summary

Daily Weather History Graph

Daily Weather History Graph

Search for Another Location

Airport:

Trip Planner

Search our weather history database for the weather conditions in past years. The results will help you decide how hot, cold, wet, or windy it might be!

Date:

Astronomy

Aug. 01, 2014 Rise Set
Actual Time 6:18 AM CDT 8:20 PM CDT
Civil Twilight 5:49 AM CDT 8:49 PM CDT
Nautical Twilight 5:14 AM CDT 9:24 PM CDT
Astronomical Twilight 4:36 AM CDT 10:02 PM CDT
Moon 11:34 AM CDT (8/1) 11:14 PM CDT (8/1)
Length of Visible Light 15h 00m
Length of Day
14h 02m
Waxing Crescent, 28% of the Moon is Illuminated
Aug 1
Waxing Crescent
Aug 3
First Quarter
Aug 10
Full
Aug 17
Last Quarter
Aug 25
New

Hourly Weather History & Observations

Time (CDT) Temp. Heat Index Dew Point Humidity Pressure Visibility Wind Dir Wind Speed Gust Speed Precip Events Conditions
12:52 AM 64.0 °F - 62.1 °F 93% 30.06 in 10.0 mi South 4.6 mph - N/A   Clear
1:52 AM 64.0 °F - 62.1 °F 93% 30.05 in 10.0 mi South 4.6 mph - N/A   Clear
2:26 AM 63.0 °F - 61.0 °F 93% 30.08 in 1.8 mi Calm Calm - N/A   Clear
2:35 AM 64.0 °F - 62.1 °F 93% 30.09 in 3.0 mi Calm Calm - N/A   Clear
2:39 AM 64.0 °F - 62.1 °F 93% 30.08 in 1.8 mi Calm Calm - N/A   Clear
2:43 AM 64.0 °F - 62.1 °F 93% 30.08 in 1.0 mi SW 3.5 mph - N/A   Mist
2:52 AM 63.0 °F - 62.1 °F 97% 30.06 in 0.5 mi SW 4.6 mph - N/A Fog Fog
3:16 AM 62.1 °F - 61.0 °F 96% 30.08 in 0.2 mi Calm Calm - N/A Fog Fog
3:43 AM 63.0 °F - 63.0 °F 100% 30.08 in 0.8 mi South 3.5 mph - N/A   Mist
3:52 AM 64.0 °F - 63.0 °F 96% 30.06 in 0.5 mi South 5.8 mph - N/A Fog Fog
3:59 AM 63.0 °F - 63.0 °F 100% 30.08 in 0.2 mi South 6.9 mph - N/A Fog Fog
4:52 AM 63.0 °F - 62.1 °F 97% 30.05 in 0.2 mi South 4.6 mph - N/A Fog Fog
5:52 AM 63.0 °F - 62.1 °F 97% 30.06 in 0.2 mi South 3.5 mph - N/A Fog Fog
6:52 AM 62.6 °F - 60.8 °F 94% 30.10 in 0.2 mi Calm Calm - N/A Fog Fog
7:52 AM 63.0 °F - 63.0 °F 100% 30.09 in 0.2 mi SSW 4.6 mph - N/A Fog Fog
8:45 AM 64.0 °F - 64.0 °F 100% 30.12 in 0.5 mi SW 3.5 mph - N/A Fog Fog
8:52 AM 64.0 °F - 64.0 °F 100% 30.10 in 1.5 mi SW 3.5 mph - N/A   Overcast
8:57 AM 64.0 °F - 64.0 °F 100% 30.12 in 3.0 mi Calm Calm - N/A   Overcast
9:52 AM 66.0 °F - 64.0 °F 93% 30.10 in 4.0 mi Calm Calm - N/A   Overcast
10:08 AM 66.0 °F - 64.9 °F 96% 30.12 in 0.8 mi Calm Calm - N/A   Overcast
10:52 AM 68.0 °F - 64.9 °F 90% 30.10 in 9.0 mi Calm Calm - N/A   Overcast
11:07 AM 68.0 °F - 64.9 °F 90% 30.13 in 9.0 mi Calm Calm - N/A   Overcast
11:52 AM 72.0 °F - 64.9 °F 78% 30.10 in 10.0 mi Calm Calm - N/A   Overcast
12:19 PM 73.9 °F - 64.0 °F 71% 30.11 in 10.0 mi SSW 4.6 mph - N/A   Scattered Clouds
12:52 PM 75.0 °F - 64.0 °F 69% 30.08 in 10.0 mi Calm Calm - N/A   Partly Cloudy
1:52 PM 81.0 °F 81.6 °F 60.1 °F 49% 30.06 in 10.0 mi Variable 5.8 mph - N/A   Clear
2:52 PM 82.0 °F 82.0 °F 57.9 °F 44% 30.05 in 10.0 mi SE 6.9 mph - N/A   Clear
3:52 PM 82.9 °F 82.4 °F 57.0 °F 41% 30.03 in 10.0 mi North - - N/A   Clear
4:52 PM 82.9 °F 82.4 °F 57.0 °F 41% 30.02 in 10.0 mi South 5.8 mph - N/A   Partly Cloudy
5:52 PM 82.0 °F 81.7 °F 57.0 °F 42% 30.02 in 10.0 mi South 3.5 mph - N/A   Mostly Cloudy
6:52 PM 80.1 °F 81.2 °F 62.1 °F 54% 30.02 in 10.0 mi NE 3.5 mph - N/A   Scattered Clouds
7:52 PM 78.1 °F - 63.0 °F 60% 30.03 in 10.0 mi WSW 3.5 mph - N/A   Overcast
8:52 PM 73.4 °F - 64.4 °F 73% 30.05 in 10.0 mi WNW 4.6 mph - N/A   Partly Cloudy
9:52 PM 71.1 °F - 64.0 °F 78% 30.05 in 10.0 mi NNW 4.6 mph - N/A   Partly Cloudy
10:52 PM 72.0 °F - 64.0 °F 76% 30.07 in 10.0 mi NE 9.2 mph - N/A   Mostly Cloudy
11:52 PM 70.0 °F - 64.0 °F 81% 30.07 in 10.0 mi East 4.6 mph - N/A   Overcast